Regional Weather Roundup
Issued by NWS Mobile, AL

Home | Current Version | Previous Version | Text Only | Print | Product List | Glossary On
Versions: 1 2 3 4 5 6 7 8 9 10 11 12 13 14 15 16 17 18 19 20 21 22 23 24 25 26 27 28 29 30 31 32 33 34 35 36 37 38 39 40 41 42 43 44 45 46 47 48 49 50
052
ASUS44 KMOB 220413
RWRMOB
REGIONAL WEATHER ROUNDUP
NATIONAL WEATHER SERVICE MOBILE AL
1100 PM CDT THU SEP 21 2017

NOTE: "FAIR" INDICATES FEW OR NO CLOUDS BELOW 12,000 FEET WITH NO
      SIGNIFICANT WEATHER AND/OR OBSTRUCTIONS TO VISIBILITY.

  * THESE STATIONS ARE PART OF THE UNIVERSITY OF SOUTH ALABAMA
    MESONET AND ARE NOT UNDER NWS OR FAA QUALITY CONTROL.

ALZ061>064-220500-
COASTAL ALABAMA

CITY           SKY/WX    TMP DP  RH WIND       PRES   REMARKS
MOBILE REG APT PTCLDY    73  71  93 W3        30.00R
BROOKLEY FIELD CLEAR     75  74  96 CALM      30.00R
USA CAMPUS*    NOT AVBL
DOG RIVER*     NOT AVBL


CITY           SKY/WX    TMP DP  RH WIND       PRES   REMARKS
GULF SHORES    PTCLDY    75  75 100 CALM      29.99S

$$

ALZ051>060-220500-
INTERIOR SOUTHWEST AND SOUTH CENTRAL ALABAMA

CITY           SKY/WX    TMP DP  RH WIND       PRES   REMARKS
GREENVILLE     CLEAR     73  69  87 CALM      30.00S
EVERGREEN      CLEAR     72  70  93 CALM      30.00S
ATMORE*          N/A    N/A N/A N/A CALM        N/A
ANDALUSIA/OPP  CLEAR     75  71  87 CALM      29.99F
ANDALUSIA*       N/A     73  72  94 CALM      30.00S
FLORALA APT    NOT AVBL
FLORALA*         N/A     72  70  94 CALM      30.68S

$$

FLZ001>006-220500-
WESTERN FLORIDA PANHANDLE

CITY           SKY/WX    TMP DP  RH WIND       PRES   REMARKS
PENSACOLA      PTCLDY    80  75  84 CALM      29.98F
NAS PENSACOLA  PTCLDY    76  73  91 CALM      29.98S
MILTON         CLEAR     72  72 100 CALM      29.99F
WHTNG S FIELD  PTCLDY    77  74  90 CALM      29.99F


CITY           SKY/WX    TMP DP  RH WIND       PRES   REMARKS
JAY*             N/A     73  72  94 CALM      29.99F
DUKE FIELD     PTCLDY    72  70  93 CALM      29.99S
CRESTVIEW      CLEAR     73  71  93 CALM      30.00F
VALPARAISO     PTCLDY    76  70  84 CALM      29.98F
DESTIN         CLEAR     77  70  79 CALM      29.99S

$$

MSZ076-079-220500-
INTERIOR SOUTHEAST MISSISSIPPI

CITY           SKY/WX    TMP DP  RH WIND       PRES   REMARKS
LEAKESVILLE*   NOT AVBL
AGRICOLA*        N/A     72  72 100 CALM      29.99S

$$

MARINE OBSERVATIONS

STATION/POSITION TIME  TEMP    WIND        PRES    WAVE
                       AIR SEA DIR/SP/G            HT/PER
                 (UTC) (F)     (DEG/KT/KT) (MB)    (FT/S)
PASCAGOULA       0336   78      20/  2/  3 1015.1F
PETIT BOIS ISLND 0336   81     290/  3/  4 1015.9F
GRAND BAY        0230   75     360/  4     1016.0S
KATRINA CUT      0330   82     330/  3     1015.2S
CEDAR POINT      0330   80     360/  2     1015.6R
E DAUPHIN ISLAND 0300   82     300/  2/  3 1015.0R
MIDDLE BAY LIGHT 0330   81     280/  3     1014.9F
USCG MOBILE BAY  0336   78 82  290/  3/  4 1015.4R
STATE DOCKS      0336   80 82              1015.4R
MEAHER PARK      0330   81     340/  2     1015.2R
WEEKS BAY        0245   76                 1015.0S
FORT MORGAN      0336   82     350/  2/  3   N/A
12 S ORANGE BCH  0350   82 84     CALM     1015.2R   1
PENSACOLA BAY    0336   82 84              1015.4F
64 S DAUPHIN ISL 0400   82 85   70/  4/  6 1015.3
67 S FORT MORGAN 0330   81      80/  4     1015.2R

$$

SELECTED LOCATIONS ACROSS THE REGION

CITY           SKY/WX    TMP DP  RH WIND       PRES   REMARKS
NEW ORLEANS    PTCLDY    77  73  87 SW5       29.98S
GULFPORT       CLEAR     74  72  93 CALM      29.97S
PASCAGOULA AP  CLEAR     71  69  93 CALM      29.99R FOG
PASCAGOULA*      N/A    N/A N/A N/A CALM        N/A
HATTIESBURG    CLEAR     75  74  96 CALM      30.00R
LAUREL         CLEAR     73  71  93 CALM      30.01R
MERIDIAN       CLEAR     73  71  93 CALM      30.00S
JACKSON        CLEAR     73  72  96 CALM      29.99S
MONTGOMERY     CLEAR     77  69  76 CALM      30.00S
TROY           CLEAR     73  73 100 CALM      30.01S
ASHFORD*         N/A     73  72  94 CALM      30.00S
DOTHAN         CLEAR     73  72  96 CALM      30.04S
PANAMA CITY    PTCLDY    72  70  93 CALM      29.98F

$$





USA.gov is the U.S. government's official web portal to all federal, state and local government web resources and services.